User: anonymous   Login
Location: Columbus
(29.5618°N, 96.6770°W)
Time: 00:02:59
(UTC-06:00)
Language:

Cosmos 2056 Rocket - Orbit

View from above orbital plane
View from above orbital plane
View from above satellite
View from above satellite

Ground track
Ground track

The orbit data is extracted from the following two-line orbital elements,

1 20433U 90004B   16037.96111525  .00000101  00000-0  43333-4 0  9994
2 20433  74.0353 187.0741 0039942  76.9141  61.9773 14.35909789363975
Epoch (UTC): 06 February 2016 23:04:00
Eccentricity: 0.0039942
inclination: 74.0353°
perigee height: 743 km
apogee height: 800 km
right ascension of ascending node: 187.0741°
argument of perigee: 76.9141°
revolutions per day: 14.35909789
mean anomaly at epoch: 61.9773°
orbit number at epoch: 36397

The dashed part of the orbit path shows where the satellite is in the earth's shadow,  

DLR